Terminal Aerodrome Forecast
Issued by NWS Austin/San Antonio, TX

Home | Current Version | Previous Version | Text Only | Print | Product List | Glossary On
Versions: 1 2 3 4 5 6 7 8 9 10 11 12 13 14 15 16 17 18 19 20 21 22 23 24
000
FTUS44 KEWX 222300
TAFSAT
TAF
KSAT 222331Z 2300/2406 16012KT P6SM FEW090
     FM231000 18007KT P6SM BKN020
     FM231500 17010KT P6SM FEW040
     FM232100 15010KT P6SM FEW090=

USA.gov is the U.S. government's official web portal to all federal, state and local government web resources and services.